1278115229004,2.94295
1278115289004,2.93257
1278115349004,2.93156
1278115409004,2.94894
1278115469004,2.93483
1278115529004,2.93966
1278115589004,2.95198
1278115649004,2.89617
1278115709004,2.94535
1278115769004,2.93232
1278115829004,2.91505
1278115889004,2.93445
1278115949004,2.91953
1278116009004,2.90372
1278116069004,2.94024
1278116129004,2.93797
1278116189004,2.93990
1278116249004,2.90736
1278116309004,2.90330
1278116369004,2.93386
1278116429004,2.94793
1278116489004,2.91508
1278116549004,2.91240
1278116609004,2.94375
1278116669004,2.93884
1278116729004,2.92114
1278116789004,2.90770
1278116849004,2.94156
1278116909004,2.94158
1278116969004,2.92383
1278117029004,2.91792
1278117089004,2.93746
1278117149004,2.93315
1278117209004,2.90437
1278117269004,2.93968
1278117329004,2.93290
1278117389004,2.93520
1278117449004,2.92135
1278117509004,2.92369
1278117569004,2.89580
1278117629004,2.93915
1278117689004,2.91692
1278117749004,2.92387
1278117809004,2.90242
1278117869004,2.91526
1278117929004,2.92876
1278117989004,2.93639
1278118049004,2.91098
1278118109004,2.93864
1278118169004,2.92883
1278118229004,2.92834
1278118289004,2.94113
1278118349004,2.93377
1278118409004,2.95000
1278118469004,2.92314
1278118529004,2.93534
1278118589004,2.88923
1278118649004,2.94210
1278118709004,2.90485
1278118769004,2.88701
1278118829013,2.90560
1278118889013,2.91866
1278118949013,2.93019
1278119009013,2.91344
1278119069013,2.90069
1278119129013,2.92882
1278119189013,2.94127
1278119249013,2.93206
1278119309013,2.92753
1278119369013,2.91192
1278119429013,2.92215
1278119489013,2.93015
1278119549013,2.89692
1278119609013,2.92091
1278119669013,2.92564
1278119729013,2.90856
1278119789013,2.88828
1278119849013,2.89150
1278119909013,2.90445
1278119969013,2.92985
1278120029013,2.92263
1278120089013,2.89502
1278120149013,2.92004
1278120209013,2.92738
1278120269013,2.92413
1278120329013,2.90848
1278120389013,2.90580
1278120449013,2.90454
1278120509013,2.87785
1278120569013,2.88072
1278120629013,2.89315
1278120689013,2.92992
1278120749013,2.86959
1278120809013,2.85632
1278120869013,2.89484
1278120929013,2.91127
1278120989013,2.91106
1278121049013,2.89138
1278121109013,2.89016
1278121169013,2.88817
1278121229013,2.90129
1278121289013,2.90386
1278121349013,2.91289
1278121409013,2.88978
1278121469013,2.93497
1278121529013,2.86037
1278121589013,2.88797
1278121649013,2.91782
1278121709013,2.87843
1278121769013,2.88846
1278121829013,2.87691
1278121889013,2.90909
1278121949013,2.88804
1278122009013,2.88775
1278122069013,2.90657
1278122129013,2.87567
1278122189013,2.90524
1278122249013,2.89246
1278122309013,2.88050
1278122369013,2.92878
1278122429022,2.87905
1278122489022,2.88969
1278122549022,2.90329
1278122609022,2.87847
1278122669022,2.87890
1278122729022,2.88642
1278122789022,2.88081
1278122849022,2.89457
1278122909022,2.86843
1278122969022,2.87885
1278123029022,2.88201
1278123089022,2.89872
1278123149022,2.90584
1278123209022,2.90633
1278123269022,2.87470
1278123329022,2.88297
1278123389022,2.87309
1278123449022,2.88804
1278123509022,2.85334
1278123569022,2.88631
1278123629022,2.87677
1278123689022,2.88267
1278123749022,2.88530
1278123809022,2.87619
1278123869022,2.88142
1278123929022,2.87610
1278123989022,2.89745
1278124049022,2.87441
1278124109022,2.89669
1278124169022,2.85750
1278124229022,2.87051
1278124289022,2.88813
1278124349022,2.88769
1278124409022,2.89147
1278124469022,2.87118
1278124529022,2.87705
1278124589022,2.86649
1278124649022,2.90864
1278124709022,2.85607
1278124769022,2.87435
1278124829022,2.87417
1278124889022,2.88125
1278124949022,2.91350
1278125009022,2.86196
1278125069022,2.90571
1278125129022,2.86768
1278125189022,2.87503
1278125249022,2.87592
1278125309022,2.88883
1278125369022,2.87487
1278125429022,2.88940
1278125489022,2.86342
1278125549022,2.88525
1278125609022,2.87695
1278125669022,2.89202
1278125729022,2.88457
1278125789022,2.90291
1278125849022,2.84156
1278125909022,2.86681
1278125969022,2.87218
1278126029031,2.87451
1278126089031,2.87348
1278126149031,2.87396
1278126209031,2.87917
1278126269031,2.87717
1278126329031,2.86527
1278126389031,2.89366
1278126449031,2.90696
1278126509031,2.89761
1278126569031,2.88217
1278126629031,2.90935
1278126689031,2.90586
1278126749031,2.87406
1278126809031,2.90047
1278126869031,2.88012
1278126929031,2.87799
1278126989031,2.88876
1278127049031,2.88300
1278127109031,2.90217
1278127169031,2.88843
1278127229031,2.91232
1278127289031,2.87337
1278127349031,2.90005
1278127409031,2.84628
1278127469031,2.88285
1278127529031,2.89693
1278127589031,2.89177
1278127649031,2.88541
1278127709031,2.89992
1278127769031,2.86126
1278127829031,2.88661
1278127889031,2.89450
1278127949031,2.90763
1278128009031,2.90234
1278128069031,2.89017
1278128129031,2.90850
1278128189031,2.90528
1278128249031,2.88903
1278128309031,2.91781
1278128369031,2.89882
1278128429031,2.87784
1278128489031,2.93490
1278128549031,2.90599
1278128609031,2.88879
1278128669031,2.89867
1278128729031,2.88482
1278128789031,2.90404
1278128849031,2.91645
1278128909031,2.89777
1278128969031,2.90906
1278129029031,2.88211
1278129089031,2.93155
1278129149031,2.87170
1278129209031,2.88869
1278129269031,2.88358
1278129329031,2.90199
1278129389031,2.88419
1278129449031,2.88129
1278129509031,2.88848
1278129569031,2.88318
1278129629040,2.89000
1278129689040,2.88031
1278129749040,2.89286
1278129809040,2.90256
1278129869040,2.89872
1278129929040,2.89021
1278129989040,2.91053
1278130049040,2.88383
1278130109040,2.91096
1278130169040,2.90213
1278130229040,2.91199
1278130289040,2.89021
1278130349040,2.91484
1278130409040,2.88316
1278130469040,2.87610
1278130529040,2.90004
1278130589040,2.87998
1278130649040,2.89079
1278130709040,2.88229
1278130769040,2.86602
1278130829040,2.88411
1278130889040,2.90008
1278130949040,2.89356
1278131009040,2.90562
1278131069040,2.85968
1278131129040,2.85562
1278131189040,2.90447
1278131249040,2.91626
1278131309040,2.87791
1278131369040,2.89448
1278131429040,2.89937
1278131489040,2.90217
1278131549040,2.90437
1278131609040,2.89652
1278131669040,2.90966
1278131729040,2.91463
1278131789040,2.89964
1278131849040,2.85978
1278131909040,2.89483
1278131969040,2.93454
1278132029040,2.89964
1278132089040,2.87699
1278132149040,2.88515
1278132209040,2.88229
1278132269040,2.90418
1278132329040,2.90493
1278132389040,2.88591
1278132449040,2.88623
1278132509040,2.90278
1278132569040,2.89358
1278132629040,2.91340
1278132689040,2.88270
1278132749040,2.91438
1278132809040,2.87372
1278132869040,2.87706
1278132929040,2.87548
1278132989040,2.87570
1278133049040,2.89101
1278133109040,2.91421
1278133169040,2.91597
1278133229048,2.90056
1278133289048,2.89834
1278133349048,2.87993
1278133409048,2.89296
1278133469048,2.87698
1278133529048,2.87484
1278133589048,2.90525
1278133649048,2.86809
1278133709048,2.92183
1278133769048,2.86831
1278133829048,2.89815
1278133889048,2.89890
1278133949048,2.89766
1278134009048,2.90010
1278134069048,2.87387
1278134129048,2.88311
1278134189048,2.87458
1278134249048,2.87081
1278134309048,2.89499
1278134369048,2.87623
1278134429048,2.87137
1278134489048,2.88756
1278134549048,2.89007
1278134609048,2.86224
1278134669048,2.89225
1278134729048,2.87312
1278134789048,2.88232
1278134849048,2.88578
1278134909048,2.88440
1278134969048,2.86837
1278135029048,2.89212
1278135089048,2.89456
1278135149048,2.88449
1278135209048,2.86724
1278135269048,2.88571
1278135329048,2.89555
1278135389048,2.88926
1278135449048,2.93797
1278135509048,2.89582
1278135569048,2.88948
1278135629048,2.89909
1278135689048,2.89122
1278135749048,2.89299
1278135809048,2.90259
1278135869048,2.90759
1278135929048,2.86250
1278135989048,2.88669
1278136049048,2.91122
1278136109048,2.88980
1278136169048,2.87667
1278136229048,2.87361
1278136289048,2.90013
1278136349048,2.91791
1278136409048,2.89716
1278136469048,2.89687
1278136529048,2.92569
1278136589048,2.86999
1278136649048,2.87640
1278136709048,2.86503
1278136769048,2.86928
1278136829057,2.87434
1278136889057,2.89150
1278136949057,2.89455
1278137009057,2.90153
1278137069056,2.89875
1278137129056,2.90580
1278137189056,2.90564
1278137249056,2.87016
1278137309056,2.89545
1278137369056,2.88527
1278137429056,2.88328
1278137489056,2.91150
1278137549056,2.89931
1278137609056,2.87677
1278137669056,2.88481
1278137729057,2.87512
1278137789056,2.91162
1278137849056,2.86317
1278137909056,2.85519
1278137969056,2.89149
1278138029057,2.88002
1278138089057,2.84675
1278138149057,2.86477
1278138209057,2.89275
1278138269057,2.87822
1278138329057,2.87336
1278138389057,2.88699
1278138449056,2.88167
1278138509056,2.88546
1278138569056,2.90061
1278138629056,2.87048
1278138689056,2.89437
1278138749056,2.88276
1278138809056,2.87729
1278138869056,2.90788
1278138929056,2.89939
1278138989056,2.90348
1278139049057,2.88550
1278139109056,2.88361
1278139169056,2.89831
1278139229056,2.91688
1278139289056,2.89759
1278139349056,2.90053
1278139409057,2.87499
1278139469057,2.88260
1278139529057,2.95415
1278139589057,2.87936
1278139649057,2.89035
1278139709057,2.88401
1278139769056,2.85670
1278139829056,2.88345
1278139889056,2.89639
1278139949056,2.92231
1278140009056,2.89902
1278140069056,2.87968
1278140129056,2.90232
1278140189056,2.87918
1278140249056,2.91827
1278140309056,2.90245
1278140369056,2.91506
1278140429065,2.89393
1278140489065,2.87100
1278140549065,2.90618
1278140609065,2.88927
1278140669065,2.87748
1278140729065,2.89249
1278140789065,2.89072
1278140849065,2.90900
1278140909065,2.88069
1278140969065,2.92253
1278141029065,2.89429
1278141089065,2.88901
1278141149065,2.86914
1278141209065,2.92733
1278141269065,2.91518
1278141329065,2.89755
1278141389065,2.88751
1278141449065,2.87844
1278141509065,2.90822
1278141569065,2.89841
1278141629065,2.90145
1278141689065,2.89959
1278141749065,2.87715
1278141809065,2.90439
1278141869065,2.89102
1278141929065,2.89370
1278141989065,2.86517
1278142049065,2.90266
1278142109065,2.89291
1278142169065,2.91972
1278142229065,2.89287
1278142289065,2.90859
1278142349065,2.89486
1278142409065,2.89245
1278142469065,2.86862
1278142529065,2.89990
1278142589065,2.90049
1278142649065,2.91973
1278142709065,2.89093
1278142769065,2.92129
1278142829065,2.89165
1278142889065,2.91112
1278142949065,2.90272
1278143009065,2.92881
1278143069065,2.90981
1278143129065,2.92366
1278143189065,2.91769
1278143249065,2.88117
1278143309065,2.89179
1278143369065,2.89766
1278143429065,2.89149
1278143489065,2.91623
1278143549065,2.89858
1278143609065,2.91099
1278143669065,2.89763
1278143729065,2.91729
1278143789065,2.89839
1278143849065,2.90394
1278143909065,2.90158
1278143969065,2.89850
1278144029073,2.92944
1278144089073,2.93100
1278144149073,2.89484
1278144209073,2.91167
1278144269073,2.89789
1278144329073,2.91542
1278144389073,2.89595
1278144449073,2.91203
1278144509073,2.90856
1278144569073,2.93443
1278144629073,2.89166
1278144689073,2.89624
1278144749073,2.91143
1278144809073,2.91238
1278144869073,2.91342
1278144929073,2.90876
1278144989073,2.92248
1278145049073,2.90996
1278145109073,2.87667
1278145169073,2.89453
1278145229073,2.89803
1278145289073,2.90256
1278145349073,2.89019
1278145409073,2.88374
1278145469073,2.90742
1278145529073,2.91514
1278145589073,2.89164
1278145649073,2.91636
1278145709073,2.87707
1278145769073,2.88782
1278145829073,2.89849
1278145889073,2.88807
1278145949073,2.90526
1278146009073,2.90116
1278146069073,2.88807
1278146129073,2.89074
1278146189073,2.91021
1278146249073,2.89348
1278146309073,2.90719
1278146369073,2.88239
1278146429073,2.91656
1278146489073,2.88764
1278146549073,2.90201
1278146609073,2.86066
1278146669073,2.90993
1278146729073,2.90356
1278146789073,2.88716
1278146849073,2.89972
1278146909073,2.88764
1278146969073,2.89863
1278147029073,2.84700
1278147089073,2.93212
1278147149073,2.91621
1278147209073,2.90376
1278147269073,2.89120
1278147329073,2.87871
1278147389073,2.93469
1278147449073,2.92095
1278147509073,2.87197
1278147569073,2.90731
1278147629082,2.91684
1278147689082,2.91145
1278147749082,2.90005
1278147809082,2.89959
1278147869082,2.92106
1278147929082,2.90382
1278147989082,2.87840
1278148049082,2.91415
1278148109082,2.89463
1278148169082,2.92249
1278148229082,2.93343
1278148289082,2.89082
1278148349082,2.90223
1278148409082,2.92035
1278148469082,2.90904
1278148529082,2.92816
1278148589082,2.91497
1278148649082,2.91341
1278148709082,2.89309
1278148769082,2.91642
1278148829082,2.90119
1278148889082,2.90024
1278148949082,2.91499
1278149009082,2.87537
1278149069082,2.90534
1278149129082,2.87315
1278149189082,2.90043
1278149249082,2.90261
1278149309082,2.91077
1278149369082,2.90297
1278149429082,2.91217
1278149489082,2.86830
1278149549082,2.88976
1278149609082,2.91354
1278149669082,2.89531
1278149729082,2.88702
1278149789082,2.92805
1278149849082,2.90844
1278149909082,2.91102
1278149969082,2.91216
1278150029082,2.87144
1278150089082,2.92460
1278150149082,2.88694
1278150209082,2.92671
1278150269082,2.90900
1278150329082,2.90236
1278150389082,2.90520
1278150449082,2.91330
1278150509082,2.88880
1278150569082,2.91753
1278150629082,2.93216
1278150689082,2.91550
1278150749082,2.93831
1278150809082,2.90628
1278150869082,2.91164
1278150929082,2.93506
1278150989082,2.90858
1278151049082,2.89879
1278151109082,2.92252
1278151169082,2.91939
1278151229090,2.89363
1278151289090,2.91454
1278151349090,2.92934
1278151409090,2.91006
1278151469090,2.93632
1278151529090,2.88220
1278151589090,2.92912
1278151649090,2.91503
1278151709090,2.92273
1278151769090,2.90285
1278151829090,2.88333
1278151889090,2.86840
1278151949090,2.87635
1278152009090,2.90216
1278152069090,2.93120
1278152129090,2.92824
1278152189090,2.92713
1278152249090,2.89557
1278152309090,2.91988
1278152369090,2.90934
1278152429090,2.91420
1278152489090,2.92440
1278152549090,2.89519
1278152609090,2.92576
1278152669090,2.89273
1278152729090,2.90172
1278152789090,2.89330
1278152849090,2.93733
1278152909090,2.92129
1278152969090,2.92600
1278153029090,2.96462
1278153089090,2.92030
1278153149090,2.93519
1278153209090,2.91879
1278153269090,2.89477
1278153329090,2.92026
1278153389090,2.91432
1278153449090,2.90406
1278153509090,2.91238
1278153569090,2.92289
1278153629090,2.91294
1278153689090,2.90435
1278153749090,2.92389
1278153809090,2.91988
1278153869090,2.92121
1278153929090,2.92414
1278153989090,2.90581
1278154049090,2.93040
1278154109090,2.94076
1278154169090,2.91339
1278154229090,2.94759
1278154289090,2.90615
1278154349090,2.95359
1278154409090,2.92118
1278154469090,2.89994
1278154529090,2.92644
1278154589090,2.92702
1278154649090,2.91147
1278154709090,2.91148
1278154769090,2.93519
1278154829098,2.93387
1278154889098,2.96524
1278155429098,2.92105
1278155489098,2.92890
1278155549098,2.92077
1278155609098,2.91856
1278155669098,2.93133
1278155729098,2.91241
1278155789098,2.93165
1278155849098,2.91470
1278155909098,2.94602
1278155969098,2.93992
1278156029098,2.88359
1278156089098,2.92130
1278156149098,2.92362
1278156209098,2.95664
1278156269098,2.94180
1278156329098,2.92998
1278156389098,2.90015
1278156449098,2.91269
1278156509098,2.91513
1278156569098,2.94174
1278156629098,2.91147
1278156689098,2.92752
1278156749098,2.93912
1278156809098,2.90500
1278156869098,2.92883
1278156929098,2.90831
1278156989098,2.93772
1278157049098,2.88857
1278157109098,2.93435
1278157169098,2.92437
1278157229098,2.91806
1278157289098,2.89126
1278157349098,2.90920
1278157409098,2.88623
1278157469098,2.94945
1278157529098,2.93579
1278157589098,2.92582
1278157649098,2.91172
1278157709098,2.91732
1278157769098,2.93443
1278157829098,2.92292
1278157889098,2.90818
1278157949098,2.93834
1278158009098,2.94641
1278158069098,2.92339
1278158129098,2.92611
1278158189098,2.91939
1278158249098,2.92965
1278158309098,2.90477
1278158369098,2.92666
1278158429106,2.94108
1278158489106,2.93463
1278158549106,2.92431
1278158609106,2.94246
1278158669106,2.92325
1278158729106,2.94817
1278158789106,2.95229
1278158849106,2.94962
1278158909106,2.94177
1278158969106,2.95137
1278159029106,2.93885
1278159089106,2.97861
1278159149106,2.93361
1278159209106,2.97447
1278159269106,2.93733
1278159329106,2.96396
1278159389106,2.97462
1278159449106,2.97774
1278159509106,2.96776
1278159569106,2.93038
1278159629106,2.95382
1278159689106,2.95761
1278159749106,2.93566
1278159809106,2.94232
1278159869106,2.97575
1278159929106,2.95972
1278159989106,2.97011
1278160049106,2.96545
1278160109106,2.98140
1278160169106,2.97177
1278160229106,2.98135
1278160289106,2.95470
1278160349106,2.94275
1278160409106,2.96630
1278160469106,2.96125
1278160529106,2.95895
1278160589106,2.94563
1278160649106,2.92748
1278160709106,2.96589
1278160769106,2.94658
1278160829106,2.92743
1278160889106,2.98855
1278160949106,2.96906
1278161009106,2.97809
1278161069106,2.97306
1278161129106,2.97217
1278161189106,2.96622
1278161249106,2.94712
1278161309106,2.92183
1278161369106,2.99168
1278161429106,2.98804
1278161489106,2.95801
1278161549106,2.95747
1278161609106,2.94642
1278161669106,2.95340
1278161729106,2.96040
1278161789106,2.94961
1278161849106,3.01102
1278161909106,2.95595
1278161969106,2.95142
1278162029115,2.94374
1278162089115,2.95402
1278162149115,2.95782
1278162209115,2.95802
1278162269115,2.96713
1278162329115,2.95696
1278162389115,2.98578
1278162449115,2.97493
1278162509115,2.95141
1278162569115,2.97324
1278162629115,2.97294
1278162689115,2.98816
1278162749115,2.93752
1278162809115,2.96046
1278162869115,2.96013
1278162929115,2.94928
1278162989115,2.94793
1278163049115,2.94905
1278163109115,3.00293
1278163169115,2.96894
1278163229115,2.95049
1278163289115,2.98531
1278163349115,2.94547
1278163409115,2.96527
1278163469115,2.97242
1278163529115,2.96503
1278163589115,2.98424
1278163649115,2.95954
1278163709115,2.95360
1278163769115,2.97002
1278163829115,2.97069
1278163889115,2.96978
1278163949115,2.95273
1278164009115,2.95464
1278164069115,2.96537
1278164129115,2.92789
1278164189115,2.96998
1278164249115,2.95870
1278164309115,2.94947
1278164369115,2.95756
1278164429115,2.93536
1278164489115,2.97662
1278164549115,2.91809
1278164609115,2.97380
1278164669115,2.97543
1278164729115,2.98117
1278164789115,2.96209
1278164849115,2.96378
1278164909115,2.92516
1278164969115,2.96136
1278165029115,2.98239
1278165089115,2.94746
1278165149115,2.97352
1278165209115,2.96752
1278165269115,2.96976
1278165329115,2.97009
1278165389115,2.96769
1278165449115,2.96221
1278165509115,2.98273
1278165569115,2.95051
1278165629123,2.92779
1278165689123,2.98413
1278165749123,2.92937
1278165809123,2.95443
1278165869123,2.95257
1278165929123,2.99933
1278165989123,2.96879
1278166049123,2.93178
1278166109123,2.94365
1278166169123,2.96698
1278166229123,2.94852
1278166289123,2.95211
1278166349123,2.96174
1278166409123,2.97863
1278166469123,2.96102
1278166529123,2.94016
1278166589123,2.93818
1278166649123,2.93628
1278166709123,2.96633
1278166769123,2.95600
1278166829123,3.01146
1278166889123,2.95766
1278166949123,2.93797
1278167009123,2.96908
1278167069123,2.97678
1278167129123,2.94857
1278167189123,2.95870
1278167249123,2.97706
1278167309123,2.94915
1278167369123,2.97602
1278167429123,2.95983
1278167489123,3.00749
1278167549123,2.96074
1278167609123,2.93347
1278167669123,2.94059
1278167729123,2.96005
1278167789123,2.96512
1278167849123,2.94136
1278167909123,2.94738
1278167969123,2.94394
1278168029123,2.96478
1278168089123,2.94211
1278168149123,2.91068
1278168209123,2.93512
1278168269123,2.93735
1278168329123,2.98177
1278168389123,2.94956
1278168449123,2.93345
1278168509123,2.99049
1278168569123,2.98976
1278168629123,2.93119
1278168689123,2.94360
1278168749123,2.96027
1278168809123,2.93114
1278168869123,2.94475
1278168929123,2.93008
1278168989123,2.95279
1278169049123,2.94812
1278169109123,2.97284
1278169169123,2.95520
1278169229132,2.93874
1278169289132,2.96564
1278169349132,2.92357
1278169409132,2.93238
1278169469132,2.94275
1278169529132,2.95048
1278169589132,2.97213
1278169649132,2.98744
1278169709132,2.95708
1278169769132,2.95463
1278169829132,2.92837
1278169889132,2.95713
1278169949132,2.91466
1278170009132,2.91366
1278170069132,2.91767
1278170129132,2.94488
1278170189132,2.95564
1278170249132,2.93374
1278170309132,2.94326
1278170369132,2.94409
1278170429132,2.94237
1278170489132,2.95264
1278170549132,2.93009
1278170609132,2.92536
1278170669132,2.92121
1278170729132,2.94370
1278170789132,2.93036
1278170849132,2.94401
1278170909132,2.94692
1278170969132,2.96197
1278171029132,2.94692
1278171089132,2.94053
1278171149132,2.94883
1278171209132,2.95430
1278171269132,2.93384
1278171329132,2.92797
1278171389132,2.95159
1278171449132,2.95129
1278171509132,2.95813
1278171569132,2.92984
1278171629132,2.91148
1278171689132,2.93035
1278171749132,2.92116
1278171809132,2.93847
1278171869132,2.92394
1278171929132,2.90875
1278171989132,2.92200
1278172049132,2.94181
1278172109132,2.90455
1278172169132,2.89469
1278172229132,2.93233
1278172289132,2.91277
1278172349132,2.91624
1278172409132,2.92963
1278172469132,2.90753
1278172529132,2.93518
1278172589132,2.91302
1278172649132,2.92380
1278172709132,2.91775
1278172769132,2.91801
1278172829140,2.90697
1278172889141,2.94361
1278172949141,2.90727
1278173009140,2.90243
1278173069140,2.89936
1278173129140,2.91793
1278173189140,2.93799
1278173249141,2.93945
1278173309141,2.91331
1278173369141,2.93050
1278173429141,2.92415
1278173489141,2.92246
1278173549141,2.91302
1278173609141,2.89074
1278173669140,2.91974
1278173729140,2.94450
1278173789140,2.90910
1278173849140,2.92476
1278173909140,2.88997
1278173969140,2.91072
1278174029140,2.93672
1278174089140,2.89933
1278174149140,2.91111
1278174209140,2.93314
1278174269141,2.93637
1278174329140,2.94750
1278174389140,2.94253
1278174449140,2.90132
1278174509140,2.92870
1278174569141,2.92282
1278174629141,2.91500
1278174689141,2.92035
1278174749141,2.92112
1278174809141,2.90874
1278174869141,2.90083
1278174929141,2.90936
1278174989140,2.92813
1278175049140,2.93651
1278175109140,2.92357
1278175169140,2.90810
1278175229140,2.92325
1278175289140,2.94172
1278175349140,2.90712
1278175409140,2.91139
1278175469140,2.89545
1278175529140,2.89914
1278175589141,2.90135
1278175649141,2.91101
1278175709140,2.94404
1278175769140,2.92697
1278175829140,2.94530
1278175889140,2.91144
1278175949141,2.88988
1278176009141,2.92149
1278176069141,2.92738
1278176129141,2.91739
1278176189141,2.93972
1278176249141,2.90321
1278176309141,2.89898
1278176369140,2.89768
1278176429150,2.91629
1278176489150,2.90236
1278176549150,2.87685
1278176609150,2.93817
1278176669150,2.91959
1278176729150,2.91930
1278176789150,2.93672
1278176849150,2.92183
1278176909150,2.86369
1278176969150,2.89775
1278177029150,2.94975
1278177089150,2.92814
1278177149150,2.89650
1278177209150,2.95470
1278177269150,2.92223
1278177329150,2.92001
1278177389150,2.90859
1278177449150,2.92496
1278177509150,2.91092
1278177569150,2.92988
1278177629150,2.91594
1278177689150,2.90007
1278177749150,2.91072
1278177809150,2.91557
1278177869150,2.93753
1278177929150,2.88829
1278177989150,2.94462
1278178049150,2.92476
1278178109150,2.91191
1278178169150,2.91540
1278178229150,2.96003
1278178289150,2.89552
1278178349150,2.91263
1278178409150,2.93060
1278178469150,2.92760
1278178529150,2.93505
1278178589150,2.91625
1278178649150,2.93306
1278178709150,2.94207
1278178769150,2.91606
1278178829150,2.94393
1278178889150,2.91552
1278178949150,2.93198
1278179009150,2.91553
1278179069150,2.91553
1278179129150,2.92703
1278179189150,2.91579
1278179249150,2.90073
1278179309150,2.93286
1278179369150,2.92786
1278179429150,2.93693
1278179489150,2.93429
1278179549150,2.90224
1278179609150,2.92198
1278179669150,2.92804
1278179729150,2.92316
1278179789150,2.92611
1278179849150,2.90005
1278179909150,2.91960
1278179969150,2.93353
1278180029159,2.92219
1278180089159,2.91016
1278180149159,2.93379
1278180209159,2.92917
1278180269159,2.91758
1278180329159,2.90782
1278180389159,2.90935
1278180449159,2.91458
1278180509159,2.89967
1278180569159,2.92369
1278180629159,2.90822
1278180689159,2.92743
1278180749159,2.93212
1278180809159,2.90325
1278180869159,2.89307
1278180929159,2.92559
1278180989159,2.93006
1278181049159,2.93077